This demonstration page uses our WeatherBlox Daily Observations layout. Learn more.

40.92945, -100.16068

Hourly Observations for May 2, 2016

Temp ( °F °C ) Dew Point ( °F °C ) Humidity (%) Winds ( mph kmh ) Pressure ( in mb ) Visibility ( mi km ) Precip ( " mm )
12:15 am 00:15 Clear 37 2.5 34 1.2 91 91 Calm 30.33 1027 10 16.0934 N/A
12:35 am 00:35 Clear 36 2.2 34 1.1 93 93 W 3 6 30.33 1027 10 16.0934 N/A
12:55 am 00:55 Clear 35 1.7 33 0.7 93 93 W 7 11 30.33 1027 10 16.0934 N/A
1:15 am 01:15 Clear 35 1.8 34 0.9 94 94 W 6 9 30.33 1027 10 16.0934 N/A
1:35 am 01:35 Clear 35 1.9 34 1 94 94 Calm 30.33 1027 10 16.0934 N/A
1:55 am 01:55 Clear 36 2.3 35 1.4 94 94 W 5 7 30.33 1027 10 16.0934 N/A
2:15 am 02:15 Clear 34 1.1 32 0.2 94 94 W 7 11 30.33 1027 10 16.0934 N/A
2:35 am 02:35 Clear 35 1.4 32 0.2 92 92 W 7 11 30.3 1026 10 16.0934 N/A
2:55 am 02:55 Clear 34 1.1 32 0 92 92 W 7 11 30.3 1026 10 16.0934 N/A
3:15 am 03:15 Clear 33 0.5 31 -0.3 94 94 WNW 6 9 30.3 1026 10 16.0934 N/A
3:35 am 03:35 Clear 33 0.7 32 -0.1 94 94 W 3 6 30.3 1026 10 16.0934 N/A
3:55 am 03:55 Clear 33 0.5 31 -0.5 93 93 WNW 7 11 30.3 1026 10 16.0934 N/A
4:15 am 04:15 Clear 33 0.6 32 -0.2 94 94 WNW 6 9 30.3 1026 10 16.0934 N/A
4:35 am 04:35 Clear 33 0.7 32 -0.1 94 94 WNW 8 13 30.3 1026 10 16.0934 N/A
4:55 am 04:55 Clear 33 0.5 31 -0.5 93 93 WNW 7 11 30.3 1026 10 16.0934 N/A
5:15 am 05:15 Clear 33 0.5 31 -0.5 93 93 W 8 13 30.3 1026 10 16.0934 N/A
5:35 am 05:35 Clear 32 0.2 31 -0.6 94 94 WNW 6 9 30.3 1026 10 16.0934 N/A
5:55 am 05:55 Clear 32 0.2 31 -0.6 94 94 WNW 7 11 30.27 1025 10 16.0934 N/A
6:15 am 06:15 Clear 33 0.3 31 -0.6 94 94 WNW 8 13 30.27 1025 10 16.0934 N/A
6:35 am 06:35 Clear 32 0.2 31 -0.8 93 93 WNW 6 9 30.3 1026 10 16.0934 N/A
6:55 am 06:55 Sunny 32 0.2 31 -0.7 94 94 NW 5 7 30.3 1026 10 16.0934 0 0
7:15 am 07:15 Sunny 33 0.6 31 -0.5 92 92 NW 6 9 30.3 1026 10 16.0934 N/A
7:35 am 07:35 Sunny 34 1 32 -0.2 92 92 WNW 6 9 30.3 1026 10 16.0934 N/A
7:55 am 07:55 Sunny 35 1.7 32 0.1 89 89 WNW 7 11 30.3 1026 10 16.0934 N/A
8:15 am 08:15 Sunny 37 2.9 34 1.1 88 88 WNW 7 11 30.27 1025 10 16.0934 N/A
8:35 am 08:35 Sunny 39 4 35 1.6 85 85 WNW 8 13 30.27 1025 10 16.0934 N/A
8:55 am 08:55 Sunny 41 5 36 2.3 83 83 WNW 7 11 30.27 1025 10 16.0934 N/A
9:15 am 09:15 Sunny 43 6 37 2.9 81 81 WNW 7 11 30.24 1024 10 16.0934 N/A
9:35 am 09:35 Sunny 45 7.1 38 3.6 79 79 WNW 6 9 30.24 1024 10 16.0934 N/A
9:55 am 09:55 Sunny 47 8.3 39 3.8 74 74 NW 6 9 30.18 1022 10 16.0934 N/A
10:15 am 10:15 Sunny 49 9.6 41 4.8 72 72 WNW 6 9 30.18 1022 10 16.0934 N/A
10:35 am 10:35 Sunny 52 10.9 40 4.6 65 65 NW 5 7 30.18 1022 10 16.0934 N/A
10:55 am 10:55 Sunny 53 11.6 36 2.1 52 52 NW 5 7 30.15 1021 10 16.0934 N/A
11:15 am 11:15 Sunny 53 11.8 33 0.7 47 47 NNW 3 6 30.15 1021 10 16.0934 N/A
11:35 am 11:35 Sunny 54 12.2 34 1.2 47 47 NW 5 7 30.15 1021 10 16.0934 N/A
11:55 am 11:55 Sunny 55 12.5 35 1.7 48 48 Calm 30.15 1021 10 16.0934 N/A
12:15 pm 12:15 Sunny 55 12.9 36 2.1 48 48 WNW 5 7 30.15 1021 10 16.0934 N/A
12:35 pm 12:35 Sunny 56 13.3 36 2.3 48 48 Calm 30.12 1020 10 16.0934 N/A
12:55 pm 12:55 Sunny 56 13.3 35 1.9 46 46 Calm 30.12 1020 10 16.0934 N/A
1:15 pm 13:15 Sunny 57 13.9 37 2.7 47 47 NNW 5 7 30.12 1020 10 16.0934 N/A
1:35 pm 13:35 Sunny 58 14.4 38 3.2 47 47 N 7 11 30.06 1018 10 16.0934 N/A
1:55 pm 13:55 Sunny 58 14.5 38 3.4 48 48 NW 6 9 30.06 1018 10 16.0934 N/A
2:15 pm 14:15 Sunny 59 15.1 38 3.3 45 45 W 7 11 30.06 1018 10 16.0934 N/A
2:35 pm 14:35 Sunny 60 15.3 36 2 41 41 W 5 7 30.06 1018 10 16.0934 N/A
2:55 pm 14:55 Sunny 59 15.2 36 2.1 41 41 W 5 7 30.06 1018 7 11.26538 N/A
3:15 pm 15:15 Sunny 59 15.2 35 1.5 40 40 Calm 30.03 1017 10 16.0934 N/A
3:35 pm 15:35 Sunny 60 15.4 38 3.1 44 44 W 6 9 30.03 1017 10 16.0934 N/A
3:55 pm 15:55 Sunny 59 15.2 35 1.5 40 40 Calm 30.03 1017 10 16.0934 N/A
4:15 pm 16:15 Sunny 59 15.2 37 2.5 43 43 W 5 7 30.03 1017 10 16.0934 N/A
4:35 pm 16:35 Sunny 61 16.1 35 1.6 38 38 Calm 30 1016 10 16.0934 N/A
4:55 pm 16:55 Sunny 60 15.6 37 3 43 43 Calm 30 1016 10 16.0934 N/A
5:15 pm 17:15 Sunny 59 15.1 37 2.5 43 43 Calm 30 1016 10 16.0934 N/A
5:35 pm 17:35 Sunny 59 15.2 41 4.8 50 50 Calm 30 1016 10 16.0934 N/A
5:55 pm 17:55 Mostly Cloudy 59 15.2 38 3.1 44 44 Calm 30 1016 10 16.0934 N/A
6:15 pm 18:15 Cloudy 60 15.3 40 4.3 48 48 NNE 3 6 30 1016 10 16.0934 N/A
6:35 pm 18:35 Mostly Cloudy 58 14.5 44 6.4 59 59 E 6 9 30 1016 10 16.0934 N/A
6:55 pm 18:55 Mostly Cloudy 58 14.2 44 6.7 61 61 E 6 9 30 1016 10 16.0934 N/A
7:15 pm 19:15 Mostly Cloudy 58 14.3 40 4.6 52 52 E 5 7 30 1016 10 16.0934 N/A
7:35 pm 19:35 Partly Cloudy 55 12.9 43 5.9 63 63 E 7 11 30.03 1017 10 16.0934 N/A
7:55 pm 19:55 Sunny 55 12.9 42 5.4 61 61 E 7 11 30.03 1017 10 16.0934 N/A
8:15 pm 20:15 Sunny 54 12.2 41 4.9 61 61 ESE 6 9 30.03 1017 10 16.0934 N/A
8:35 pm 20:35 Sunny 52 11.3 40 4.7 64 64 ESE 5 7 30.03 1017 10 16.0934 N/A
8:55 pm 20:55 Clear 51 10.8 40 4.7 66 66 SE 7 11 30.03 1017 10 16.0934 N/A
9:15 pm 21:15 Clear 51 10.3 41 5 70 70 SE 6 9 30.03 1017 10 16.0934 N/A
9:35 pm 21:35 Clear 51 10.5 40 4.5 67 67 SE 5 7 30.03 1017 10 16.0934 N/A
9:55 pm 21:55 Clear 48 9 40 4.4 73 73 SE 3 6 30.06 1018 10 16.0934 N/A
10:15 pm 22:15 Mostly Cloudy 50 10 41 5 71 71 SE 3 6 30.06 1018 10 16.0934 N/A
10:35 pm 22:35 Partly Cloudy 48 9.1 40 4.5 73 73 SSE 6 9 30.06 1018 10 16.0934 N/A
10:55 pm 22:55 Mostly Cloudy 48 8.7 41 5 78 78 SSE 3 6 30.06 1018 10 16.0934 N/A
11:15 pm 23:15 Cloudy 48 9.1 41 5.1 76 76 SE 3 6 30.06 1018 10 16.0934 N/A
11:35 pm 23:35 Mostly Cloudy 49 9.5 40 4.6 72 72 SSE 6 9 30.06 1018 10 16.0934 N/A
11:55 pm 23:55 Partly Cloudy 48 9.1 40 4.7 74 74 SSE 6 9 30.06 1018 10 16.0934 N/A

Powered by AerisWeather